Regional Weather Roundup
Issued by NWS

Home | Current Version | Previous Version | Text Only | Print | Product List | Glossary Off
Versions: 1 2 3 4 5 6 7 8 9 10 11 12 13 14 15 16 17 18 19 20 21 22 23 24 25 26 27 28 29 30 31 32 33 34 35 36 37 38 39 40 41 42 43 44 45 46 47 48 49 50

000
ASUS43 KOAX 241710
RWRNE

WEATHER ROUNDUP FOR NEBRASKA
NATIONAL WEATHER SERVICE OMAHA NE
1200 PM CDT WED AUG 24 2016

NOTES: SATELLITE DATA IS BEING USED TO AUGMENT CLOUD COVER ABOVE
       12000 FEET.
       "FAIR" INDICATES FEW OR NO CLOUDS BELOW 12,000 FEET WITH NO
       SIGNIFICANT WEATHER AND/OR OBSTRUCTIONS TO VISIBILITY.

  * THESE STATIONS DO NOT REPORT WEATHER SUCH AS RAIN...SNOW OR FOG.

NEZ001>004-019>022-054>056-241800-
NEBRASKA PANHANDLE

CITY           SKY/WX    TMP DP  RH WIND       PRES   REMARKS
SCOTTSBLUFF    CLOUDY    66  43  43 SE10      30.23S
ALLIANCE       MOSUNNY   65  39  38 NE7       30.23S
CHADRON        CLOUDY    67  42  40 NE9       30.23S
KIMBALL        CLOUDY    58  51  78 SE10      30.23F
SIDNEY         CLOUDY    65  45  48 NW13      30.26R
$$

NEZ057>060-069>072-079>082-241800-
SOUTHWEST NEBRASKA

CITY           SKY/WX    TMP DP  RH WIND       PRES   REMARKS
NORTH PLATTE   SUNNY     77  42  28 NE13      30.15S
IMPERIAL       CLOUDY    72  40  31 NE9       30.18R
LEXINGTON      CLOUDY    69  50  52 E6        30.11S
MCCOOK         CLOUDY    71  46  40 NE5       30.15R
OGALLALA       CLOUDY    73  35  25 N8        30.18R
$$

NEZ005>010-023>029-035>040-094-241800-
NORTH CENTRAL NEBRASKA

CITY           SKY/WX    TMP DP  RH WIND       PRES   REMARKS
VALENTINE        N/A     65  45  48 NW10      30.18F
AINSWORTH      PTSUNNY   67  51  56 N16G23    30.16R
BROKEN BOW       N/A     73  48  41 MISG      30.13R
O`NEILL        CLOUDY    71  46  40 NW13      30.12R
ORD            CLOUDY    72  53  51 VRB5      30.09S
THEDFORD       CLOUDY    71  46  40 N10G16    30.19R
$$

NEZ041-046>049-061>064-073>077-083>087-241800-
SOUTH CENTRAL NEBRASKA

CITY           SKY/WX    TMP DP  RH WIND       PRES   REMARKS
GRAND ISLAND   PTSUNNY   72  51  47 N9        30.08R
AURORA         CLOUDY    73  54  51 NE7       30.07R
HASTINGS       CLOUDY    71  53  52 NE8       30.09R
HEBRON         CLOUDY    73  68  83 SE3       30.04R
HOLDREGE       CLOUDY    64  51  64 CALM      30.11R
KEARNEY *      CLOUDY    66  52  59 N7        30.10R
YORK           CLOUDY    73  57  56 NE6       30.06R
$$

NEZ011>018-030>034-042>045-241800-
NORTHEAST NEBRASKA

CITY           SKY/WX    TMP DP  RH WIND       PRES   REMARKS
NORFOLK        CLOUDY    72  54  53 N7        30.07R
ALBION         CLOUDY    70  54  57 N7        30.08S
BLAIR          MOSUNNY   78  62  59 N12       30.00R
FREMONT        MOSUNNY   76  57  51 N8        30.02R
TEKAMAH        CLOUDY    77  63  61 N12       30.00S
WAYNE          CLOUDY    72  61  68 NW6       30.05S
$$

NEZ050>053-065>068-078-088>093-241800-
SOUTHEAST NEBRASKA

CITY           SKY/WX    TMP DP  RH WIND       PRES   REMARKS
LINCOLN        MOSUNNY   80  61  52 NE14      30.02S
OMAHA EPPLEY   PTSUNNY   79  66  64 N5        30.00R
BEATRICE       CLOUDY    75  67  76 NE5       30.02R
FALLS CITY     CLOUDY    75  69  81 SE3       30.02R
NEBRASKA CITY  PTSUNNY   74  69  85 CALM      30.01S
PLATTSMOUTH    MOSUNNY   77  68  72 NE5       30.02R
$$

NEZ044-045-051>053-067-241800-
OMAHA AREA

CITY           SKY/WX    TMP DP  RH WIND       PRES   REMARKS
OMAHA EPPLEY   PTSUNNY   79  66  64 N5        30.00R
BLAIR          MOSUNNY   78  62  59 N12       30.00R
FREMONT        MOSUNNY   76  57  51 N8        30.02R
MILLARD        MOSUNNY   79  64  60 N3        30.01R
OFFUTT AFB     SUNNY     78  68  71 N5        30.00R
PLATTSMOUTH    MOSUNNY   77  68  72 NE5       30.02R
WAHOO          FAIR      77  60  56 N13       30.01R
$$




USA.gov is the U.S. government's official web portal to all federal, state and local government web resources and services.